Location: Chiroubles
(46.1812°N, 4.6660°E)
Time: 09:07:51
(UTC+00:00)

N. Korean satellite - Visible Passes

Search period start: 27 October 2020 00:00
Search period end: 06 November 2020 00:00
Orbit: 452 x 505 km, 97.2° (Epoch: 26 October)

Date Brightness Start Highest point End Pass type
(mag) Time Alt. Az. Time Alt. Az. Time Alt. Az.
27 Oct 6.3 05:26:09 10° N 05:29:35 77° WNW 05:32:59 10° SSW visible
27 Oct 10.4 17:39:36 10° WSW 17:40:33 11° W 17:41:30 10° WNW visible
28 Oct 7.6 05:00:06 10° NNE 05:03:26 46° E 05:06:43 10° S visible
28 Oct 9.6 17:11:26 10° SW 17:14:13 21° W 17:16:58 10° NW visible
29 Oct 9.2 04:34:25 10° NE 04:37:11 22° E 04:39:54 10° SSE visible
30 Oct 10.1 04:09:45 10° ENE 04:10:50 11° E 04:11:54 10° ESE visible
30 Oct 6.6 05:41:10 10° N 05:44:28 47° WNW 05:47:45 10° SSW visible
31 Oct 6.6 05:14:55 10° NNE 05:18:21 76° ESE 05:21:46 10° S visible
31 Oct 10.0 17:27:14 10° SW 17:29:14 14° W 17:31:12 10° WNW visible
01 Nov 8.3 04:49:00 10° NNE 04:52:08 33° E 04:55:17 10° SSE visible
01 Nov 9.0 16:59:50 10° SSW 17:02:54 28° W 17:05:58 10° NW visible
02 Nov 9.6 04:23:32 10° NE 04:25:50 17° E 04:28:07 10° SE visible
03 Nov 6.4 05:29:47 10° N 05:33:13 68° WNW 05:36:37 10° SSW visible
04 Nov 7.3 05:03:40 10° NNE 05:07:02 53° E 05:10:24 10° S visible
04 Nov 9.7 17:15:18 10° SW 17:17:51 19° W 17:20:23 10° NW visible
05 Nov 8.9 04:37:52 10° NE 04:40:46 25° E 04:43:39 10° SSE visible
05 Nov 8.3 16:48:16 10° SSW 16:51:32 38° W 16:54:48 10° NNW visible
